• In Hungary
  • List of Countries
  • For 7 days
  • Water Temperature
  • Satellite Maps
  • Weather Map
  • News
  • Weather Widgets
  • user-avatar
    Login

    Hourly Weather Sint-Truiden

    Today, 15 December, Friday

    Time Temperature Precipitation Wind Pressure Humidity
    00:00 +1°C° 0 mm 3 mps 737 mmHg 92%
    01:00 0°C° 0 mm 4 mps 737 mmHg 92%
    02:00 -1°C° 0 mm 4 mps 737 mmHg 92%
    03:00 -1°C° 0 mm 4 mps 738 mmHg 92%
    04:00 -1°C° 0 mm 4 mps 738 mmHg 92%
    05:00 0°C° 0 mm 3 mps 738 mmHg 92%
    06:00 +1°C° 0 mm 2 mps 738 mmHg 94%
    07:00 +2°C° 0 mm 2 mps 738 mmHg 93%
    08:00 +2°C° 0 mm 2 mps 739 mmHg 92%
    09:00 +1°C° 0 mm 3 mps 739 mmHg 91%
    10:00 +2°C° 0 mm 3 mps 739 mmHg 89%
    11:00 +3°C° 0 mm 3 mps 740 mmHg 87%
    12:00 +4°C° 0 mm 2 mps 740 mmHg 85%
    13:00 +4°C° 0 mm 2 mps 740 mmHg 87%
    14:00 +4°C° 0 mm 2 mps 741 mmHg 88%
    15:00 +4°C° 0 mm 2 mps 741 mmHg 90%
    16:00 +4°C° 0.1 mm 1 mps 742 mmHg 91%
    17:00 +4°C° 0.1 mm 1 mps 742 mmHg 92%
    18:00 +2°C° 0.1 mm 0 mps 743 mmHg 93%
    19:00 +2°C° 0 mm 0 mps 743 mmHg 94%
    20:00 +3°C° 0 mm 1 mps 744 mmHg 94%
    21:00 +2°C° 0 mm 1 mps 744 mmHg 94%
    22:00 +2°C° 0 mm 1 mps 745 mmHg 95%
    23:00 +2°C° 0 mm 1 mps 746 mmHg 95%

    Tomorrow, 16 December, Saturday

    Time Temperature Precipitation Wind Pressure Humidity
    00:00 +2°C° 0 mm 1 mps 747 mmHg 96%
    01:00 +2°C° 0 mm 1 mps 747 mmHg 96%
    02:00 +1°C° 0 mm 2 mps 748 mmHg 96%
    03:00 +1°C° 0 mm 2 mps 749 mmHg 96%
    04:00 +1°C° 0 mm 2 mps 749 mmHg 95%
    05:00 +1°C° 0 mm 2 mps 750 mmHg 95%
    06:00 +1°C° 0 mm 2 mps 750 mmHg 95%
    07:00 +2°C° 0.1 mm 2 mps 751 mmHg 93%
    08:00 +1°C° 0.1 mm 3 mps 752 mmHg 92%
    09:00 +1°C° 0.1 mm 3 mps 752 mmHg 91%
    10:00 +2°C° 0.2 mm 3 mps 753 mmHg 86%
    11:00 +3°C° 0.2 mm 4 mps 753 mmHg 82%
    12:00 +4°C° 0.2 mm 4 mps 753 mmHg 78%
    13:00 +4°C° 0.3 mm 4 mps 754 mmHg 79%
    14:00 +3°C° 0.3 mm 4 mps 754 mmHg 80%
    15:00 +3°C° 0.3 mm 4 mps 755 mmHg 81%
    16:00 +3°C° 0.3 mm 4 mps 755 mmHg 83%
    17:00 +1°C° 0.3 mm 4 mps 756 mmHg 85%
    18:00 +1°C° 0.3 mm 4 mps 756 mmHg 87%
    19:00 +1°C° 0.2 mm 4 mps 756 mmHg 88%
    20:00 +1°C° 0.2 mm 4 mps 757 mmHg 89%
    21:00 0°C° 0.2 mm 4 mps 757 mmHg 89%
    22:00 +1°C° 0.1 mm 3 mps 758 mmHg 90%
    23:00 +1°C° 0.1 mm 3 mps 758 mmHg 91%

    Day after tomorrow, 17 December, Sunday

    Time Temperature Precipitation Wind Pressure Humidity
    00:00 +1°C° 0.1 mm 3 mps 759 mmHg 91%
    01:00 +1°C° 0.1 mm 3 mps 759 mmHg 92%
    02:00 +1°C° 0.1 mm 3 mps 759 mmHg 92%
    03:00 +1°C° 0.1 mm 3 mps 760 mmHg 93%
    04:00 0°C° 0.1 mm 3 mps 760 mmHg 93%
    05:00 0°C° 0.1 mm 3 mps 760 mmHg 93%
    06:00 0°C° 0.1 mm 3 mps 761 mmHg 94%
    07:00 0°C° 0 mm 3 mps 761 mmHg 93%
    08:00 +1°C° 0 mm 3 mps 762 mmHg 93%
    09:00 +1°C° 0 mm 3 mps 762 mmHg 92%
    10:00 +2°C° 0.1 mm 3 mps 763 mmHg 90%
    11:00 +3°C° 0.1 mm 3 mps 763 mmHg 88%
    12:00 +3°C° 0.1 mm 4 mps 763 mmHg 86%
    13:00 +3°C° 0.1 mm 4 mps 763 mmHg 86%
    14:00 +3°C° 0.1 mm 3 mps 763 mmHg 86%
    15:00 +2°C° 0.1 mm 3 mps 763 mmHg 86%
    16:00 +2°C° 0 mm 3 mps 763 mmHg 86%
    17:00 0°C° 0 mm 4 mps 764 mmHg 86%
    18:00 -1°C° 0 mm 4 mps 764 mmHg 86%
    19:00 0°C° 0.2 mm 4 mps 764 mmHg 86%
    20:00 0°C° 0.2 mm 5 mps 763 mmHg 86%
    21:00 +1°C° 0.2 mm 6 mps 763 mmHg 86%
    22:00 +1°C° 0.8 mm 6 mps 763 mmHg 88%
    23:00 +2°C° 0.8 mm 7 mps 762 mmHg 90%

    18 December, Monday

    Time Temperature Precipitation Wind Pressure Humidity
    00:00 +3°C° 0.8 mm 7 mps 762 mmHg 92%
    01:00 +3°C° 1.4 mm 7 mps 761 mmHg 93%
    02:00 +4°C° 1.4 mm 7 mps 761 mmHg 94%
    03:00 +5°C° 1.4 mm 6 mps 760 mmHg 95%
    04:00 +6°C° 0.4 mm 5 mps 760 mmHg 95%
    05:00 +6°C° 0.4 mm 5 mps 761 mmHg 95%
    06:00 +6°C° 0.4 mm 4 mps 761 mmHg 95%
    07:00 +7°C° 0 mm 3 mps 761 mmHg 94%
    08:00 +5°C° 0 mm 3 mps 762 mmHg 93%
    09:00 +5°C° 0 mm 3 mps 763 mmHg 92%
    10:00 +5°C° 0 mm 3 mps 763 mmHg 87%
    11:00 +7°C° 0 mm 3 mps 763 mmHg 82%
    12:00 +6°C° 0 mm 4 mps 763 mmHg 77%
    13:00 +7°C° 0 mm 3 mps 764 mmHg 79%
    14:00 +5°C° 0 mm 3 mps 764 mmHg 82%
    15:00 +5°C° 0 mm 3 mps 765 mmHg 85%
    16:00 +4°C° 0 mm 3 mps 765 mmHg 87%
    17:00 +5°C° 0 mm 2 mps 766 mmHg 90%
    18:00 +4°C° 0 mm 2 mps 767 mmHg 92%
    19:00 +4°C° 0 mm 2 mps 767 mmHg 92%
    20:00 +4°C° 0 mm 1 mps 768 mmHg 92%
    21:00 +4°C° 0 mm 1 mps 769 mmHg 93%
    22:00 +4°C° 0 mm 1 mps 769 mmHg 93%
    23:00 +4°C° 0 mm 1 mps 769 mmHg 93%

    19 December, Tuesday

    Time Temperature Precipitation Wind Pressure Humidity
    00:00 +3°C° 0 mm 1 mps 769 mmHg 93%
    01:00 +3°C° 0 mm 1 mps 770 mmHg 93%
    02:00 +3°C° 0 mm 1 mps 770 mmHg 94%
    03:00 +3°C° 0 mm 1 mps 770 mmHg 94%
    04:00 +3°C° 0 mm 1 mps 770 mmHg 94%
    05:00 +3°C° 0 mm 1 mps 770 mmHg 94%
    06:00 +3°C° 0 mm 1 mps 771 mmHg 94%
    07:00 +3°C° 0 mm 1 mps 771 mmHg 93%
    08:00 +2°C° 0 mm 2 mps 771 mmHg 92%
    09:00 +3°C° 0 mm 2 mps 772 mmHg 92%
    10:00 +4°C° 0 mm 2 mps 772 mmHg 88%
    11:00 +5°C° 0 mm 2 mps 772 mmHg 85%
    12:00 +6°C° 0 mm 2 mps 772 mmHg 82%
    13:00 +5°C° 0 mm 2 mps 772 mmHg 84%
    14:00 +5°C° 0 mm 2 mps 772 mmHg 86%
    15:00 +5°C° 0 mm 2 mps 771 mmHg 88%
    16:00 +4°C° 0 mm 2 mps 772 mmHg 89%
    17:00 +4°C° 0 mm 2 mps 772 mmHg 90%
    18:00 +3°C° 0 mm 2 mps 772 mmHg 90%
    19:00 +3°C° 0 mm 2 mps 772 mmHg 89%
    20:00 +2°C° 0 mm 3 mps 773 mmHg 88%
    21:00 +2°C° 0 mm 3 mps 773 mmHg 87%
    22:00 +2°C° 0 mm 3 mps 773 mmHg 86%
    23:00 +2°C° 0 mm 3 mps 773 mmHg 86%

    20 December, Wednesday

    Time Temperature Precipitation Wind Pressure Humidity
    00:00 +2°C° 0 mm 3 mps 773 mmHg 85%
    01:00 +2°C° 0 mm 3 mps 772 mmHg 85%
    02:00 +3°C° 0 mm 3 mps 772 mmHg 85%
    03:00 +3°C° 0 mm 3 mps 772 mmHg 86%
    04:00 +3°C° 0 mm 3 mps 772 mmHg 87%
    05:00 +3°C° 0 mm 3 mps 772 mmHg 88%
    06:00 +3°C° 0 mm 3 mps 772 mmHg 89%
    07:00 +4°C° 0 mm 3 mps 773 mmHg 90%
    08:00 +4°C° 0 mm 3 mps 773 mmHg 91%
    09:00 +4°C° 0 mm 3 mps 773 mmHg 92%
    10:00 +5°C° 0 mm 3 mps 773 mmHg 93%
    11:00 +5°C° 0 mm 3 mps 773 mmHg 93%
    12:00 +7°C° 0 mm 3 mps 773 mmHg 93%
    13:00 +7°C° 0 mm 3 mps 773 mmHg 94%
    14:00 +7°C° 0 mm 3 mps 773 mmHg 95%
    15:00 +7°C° 0 mm 3 mps 773 mmHg 96%
    16:00 +7°C° 0 mm 3 mps 773 mmHg 96%
    17:00 +7°C° 0 mm 3 mps 773 mmHg 96%
    18:00 +7°C° 0 mm 3 mps 773 mmHg 97%
    19:00 +7°C° 0 mm 3 mps 773 mmHg 97%
    20:00 +7°C° 0 mm 3 mps 773 mmHg 97%
    21:00 +7°C° 0 mm 3 mps 773 mmHg 97%
    22:00 +7°C° 0 mm 3 mps 773 mmHg 96%
    23:00 +6°C° 0 mm 4 mps 773 mmHg 96%
    Show more